Location: Macksville High School
(37.9611°N, 99.9654°W)
Time: 19:49:50
(UTC+00:00)

MOS 1 Rocket - Pass Details

Date: 17 January 2021
Orbit: 614 x 830 km, 97.4° (Epoch: 26 February)

Event Time Altitude Azimuth Distance (km) Brightness Sun altitude
Rises 12:26:12 0° 175° (S) 3,304 7.0 -17.1°
Reaches altitude 10° 12:28:36 10° 178° (S) 2,355 6.2 -16.6°
Maximum altitude 12:33:46 63° 259° (W) 855 3.5 -15.6°
Drops below altitude 10° 12:38:41 10° 341° (NNW) 2,241 5.6 -14.7°
Enters shadow 12:40:54 - 345° (NNW) 3,123 6.4 -14.3°
